Location: Berlin
(38.3226°N, 75.2177°W)
Time: 18:20:52
(UTC+00:00)

Cosmos 1484 Rocket - Pass Details

Date: 26 October 2020
Orbit: 504 x 560 km, 97.4° (Epoch: 03 December)

Event Time Altitude Azimuth Distance (km) Brightness Sun altitude
Rises 10:33:59 0° 354° (N) 2,695 6.2 -9.9°
Reaches altitude 10° 10:36:39 10° 335° (NNW) 1,787 5.1 -9.4°
Maximum altitude 10:39:15 18° 292° (WNW) 1,353 4.2 -8.9°
Drops below altitude 10° 10:41:49 10° 249° (WSW) 1,756 4.9 -8.4°
Sets 10:44:25 0° 229° (SW) 2,628 5.9 -7.9°
